Wind_Speed
16 16 17 18 17 17 17 17 17 17 17 17 16 16 16 16 16 16 16 15 15 15 15 16 15 15 15 16 17 17 18 18 19 19 18 17 17 17 17 17 17 17 18 18
17 17 17 18 18 18 18 18 18 17 17 18 17 17 16 16 16 16 16 16 17 16 16 16 16 16 16 17 17 18 18 19 20 20 19 18 18 18 18 18 18 18 18 19
18 17 18 18 18 19 19 18 18 17 17 18 17 18 19 18 18 18 17 17 18 17 16 16 17 17 17 17 18 18 19 20 20 19 19 19 19 18 18 17 17 18 19 19
18 17 19 17 18 19 19 19 19 19 19 18 18 18 19 19 19 20 19 19 19 18 17 17 18 18 18 18 18 19 19 19 19 19 19 19 18 18 17 17 18 18 19 18
18 19 18 16 17 17 17 18 19 18 18 18 17 17 18 19 20 21 20 19 18 18 19 18 18 18 19 19 19 19 19 19 20 19 19 18 18 18 18 18 18 19 19 19
19 19 19 17 15 16 17 18 17 17 17 17 17 18 19 19 19 19 19 18 18 18 19 19 19 18 18 19 19 18 18 19 19 19 19 19 18 18 18 18 18 19 19 19
20 20 20 19 17 17 17 17 17 17 17 18 18 18 19 19 19 19 19 18 18 18 18 18 18 18 19 19 19 19 19 19 19 19 19 19 19 19 19 19 19 19 19 19
20 20 20 18 18 18 18 17 18 18 17 17 18 19 19 19 19 19 19 18 18 18 18 18 18 19 19 19 20 20 19 19 19 18 19 19 20 19 19 19 19 19 19 18
20 20 20 19 18 18 18 18 18 17 16 17 18 19 19 19 18 18 18 17 17 18 19 19 19 19 19 19 19 19 19 19 18 19 19 19 19 19 19 19 19 19 18 18
22 22 22 22 21 19 19 19 18 18 18 17 18 19 20 19 19 19 19 18 18 19 19 20 20 20 20 19 19 19 19 19 19 20 20 19 19 19 19 19 19 19 18 18
24 24 24 23 22 21 20 19 19 20 19 19 19 19 20 21 21 21 21 20 20 20 19 19 20 20 20 19 19 19 19 19 19 20 20 20 20 20 20 20 19 18 18 18
25 25 25 25 24 23 22 21 21 21 21 21 21 21 21 21 21 22 21 21 21 21 20 20 20 20 20 19 19 19 20 20 21 21 22 21 21 21 20 20 19 18 18 19
26 26 26 26 25 24 24 23 22 22 22 22 23 22 22 22 22 22 22 22 22 21 21 21 21 20 20 19 19 20 20 21 22 22 22 22 21 21 21 20 19 19 19 19
27 27 26 26 26 26 25 24 23 23 23 23 22 22 22 22 21 21 21 21 21 21 22 22 22 21 21 21 21 21 22 22 22 22 22 22 21 21 21 20 19 19 19 19
26 27 27 27 27 26 26 25 24 23 23 22 22 22 22 22 22 21 21 22 22 22 22 22 22 22 22 21 21 22 22 22 22 22 22 22 22 22 21 20 20 20 19 19
27 27 27 27 27 28 27 26 25 25 24 23 23 23 23 23 23 23 23 22 22 22 22 22 22 21 21 22 22 22 23 22 22 23 23 22 21 21 21 21 20 20 19 19
27 28 27 26 27 27 26 26 25 25 24 24 23 23 23 23 23 23 22 22 22 22 22 22 22 21 22 21 22 23 23 22 22 22 21 20 19 19 19 19 18 17 18 18
26 26 26 27 26 27 26 25 25 24 24 23 23 22 21 21 22 22 22 21 21 21 21 21 21 21 21 21 22 22 22 21 21 20 20 19 18 18 18 18 18 17 17 17
25 25 25 26 26 25 24 24 24 23 23 22 22 22 22 22 22 22 21 20 20 20 20 20 20 20 20 20 20 21 21 21 20 20 19 18 18 17 17 17 17 17 17 17
24 25 25 25 25 24 24 24 23 23 22 22 23 23 23 23 23 23 21 21 21 21 21 20 20 20 20 19 19 19 19 19 19 19 18 17 17 17 16 17 17 17 16 17
22 23 23 24 23 23 23 23 22 22 23 23 23 23 23 23 23 23 22 22 22 22 21 21 20 20 20 20 20 19 19 19 18 18 18 18 17 17 17 17 17 17 17 17
21 21 21 22 22 22 23 23 23 23 23 23 23 23 23 23 23 23 23 23 22 22 22 22 21 20 20 20 20 20 19 19 19 19 18 17 17 17 17 17 18 18 18 19
20 20 20 21 21 22 23 23 23 23 23 24 24 23 23 23 23 23 22 22 22 22 22 21 21 21 21 20 20 20 19 19 18 18 18 17 17 17 18 18 19 19 19 20
20 20 20 21 21 22 22 23 24 24 24 24 24 24 24 24 23 23 23 23 22 22 21 20 20 20 20 19 19 19 18 18 18 17 18 17 17 17 18 18 19 19 20 20
20 20 21 22 22 22 22 22 22 22 23 23 23 23 23 23 23 22 22 22 21 21 21 21 20 20 19 19 18 18 18 18 18 18 18 18 17 18 18 18 19 20 20 21
20 21 22 22 22 22 22 22 22 22 22 22 23 23 23 22 22 21 21 21 20 20 20 20 19 19 19 19 19 18 18 18 18 18 18 18 18 18 18 19 20 21 21 21
20 21 21 21 21 22 22 22 22 22 22 22 22 22 22 22 21 21 21 21 20 21 20 20 20 19 19 19 19 19 18 18 18 18 18 18 18 19 19 20 21 21 21 21
Wind_Direction
259 259 259 264 267 269 272 276 278 281 284 286 290 293 295 295 295 295 295 293 296 301 305 304 307 309 310 314 316 318 322 324 325 324 322 320 318 315 312 308 307 306 307 308
259 259 262 262 265 268 270 274 277 278 277 281 287 291 294 293 294 293 297 296 295 297 301 301 304 306 309 310 313 316 318 320 321 322 321 319 318 315 312 308 307 307 308 309
263 261 263 263 267 269 270 271 274 275 277 280 286 290 292 292 293 295 294 294 297 298 301 301 300 301 304 307 311 314 317 318 319 320 320 320 320 318 315 313 312 311 310 311
262 264 263 265 265 266 268 272 274 277 278 280 283 285 286 286 289 294 295 295 296 295 297 298 298 299 301 305 309 313 316 318 319 318 319 319 319 318 316 314 315 315 315 314
261 265 267 264 264 267 268 271 275 277 279 280 279 281 283 285 287 290 291 292 290 291 295 296 299 300 300 305 308 312 315 316 317 317 317 317 318 318 317 316 316 315 315 315
264 267 269 271 269 271 272 270 274 277 279 280 280 280 282 283 286 287 290 290 292 293 294 296 298 300 301 304 307 310 313 314 315 316 317 317 317 318 320 319 317 317 316 316
265 270 272 271 270 272 272 273 274 277 279 280 279 281 282 284 286 287 288 289 292 292 294 295 295 297 300 303 305 306 308 311 313 315 317 319 319 319 319 318 317 317 317 317
265 268 270 272 270 271 274 275 276 278 278 277 278 280 280 282 285 285 287 287 289 292 293 295 296 298 298 300 302 303 306 309 312 315 317 320 321 321 320 320 319 320 319 318
263 266 269 272 272 272 272 276 280 283 284 282 281 279 278 281 285 287 287 286 287 289 291 294 296 297 298 299 301 303 305 309 313 315 317 318 320 322 321 321 322 321 319 318
260 263 268 273 274 271 272 277 280 282 285 286 286 283 282 284 286 289 287 287 288 288 291 294 295 295 296 299 301 302 304 306 310 313 315 317 319 319 319 318 318 318 317 317
258 261 265 270 271 271 273 275 276 279 283 284 285 286 286 285 283 284 284 287 288 287 289 292 293 293 294 295 297 299 301 304 307 309 310 312 313 314 313 314 313 314 316 317
255 259 262 266 270 271 273 274 275 278 280 282 285 288 289 286 284 284 281 282 283 284 283 286 289 291 291 293 295 298 299 301 304 306 306 307 308 309 311 310 310 311 312 314
257 259 261 262 264 268 271 273 275 279 279 279 282 285 286 286 286 284 282 282 282 281 282 284 286 287 287 291 294 296 299 301 303 304 305 305 305 307 308 307 307 308 309 311
257 258 259 260 262 264 268 271 274 278 279 278 280 282 283 282 283 283 283 284 283 282 283 284 285 285 286 289 292 294 296 299 302 304 306 307 306 307 307 306 304 302 304 308
256 256 258 259 260 261 264 269 273 275 276 277 278 279 280 282 284 284 285 286 285 283 284 285 286 286 286 287 289 292 294 297 299 301 303 305 306 306 307 305 303 302 301 302
254 255 258 259 260 261 264 266 268 269 272 276 278 279 280 281 283 285 285 286 285 284 283 284 286 285 286 289 289 290 292 294 296 298 301 302 303 306 307 307 304 303 302 301
258 259 259 260 261 262 264 265 266 266 268 271 275 278 280 281 283 285 287 287 285 283 284 286 285 286 288 290 290 290 291 293 295 297 299 301 302 304 306 307 305 304 305 306
261 260 261 262 262 263 261 263 265 264 266 269 272 275 277 281 284 286 287 286 285 283 282 284 284 284 286 288 290 291 290 291 292 294 294 297 299 302 303 305 308 308 307 307
260 259 260 259 261 261 260 261 262 264 266 268 270 272 274 278 282 284 284 284 284 283 282 284 284 284 286 287 287 288 288 288 290 293 292 293 297 301 304 306 308 310 308 306
262 262 261 258 258 258 259 259 260 263 266 268 269 271 272 275 278 281 281 282 283 283 282 284 283 283 286 288 287 288 287 288 291 291 291 292 295 296 299 303 306 306 306 307
262 261 259 256 254 254 255 257 260 263 265 267 268 269 270 273 276 277 278 279 281 281 280 280 280 282 284 286 286 287 288 289 290 290 289 291 292 292 295 299 301 304 304 306
261 258 255 255 256 257 257 257 259 261 262 264 267 268 269 272 274 276 277 278 280 280 280 279 279 282 285 284 283 284 287 288 288 288 289 290 291 291 293 295 297 300 303 304
260 257 256 256 257 258 257 258 259 261 263 264 267 268 270 272 274 274 274 276 278 280 282 282 282 283 284 284 284 284 285 287 287 287 287 288 289 291 291 293 295 297 300 303
265 263 261 260 259 258 259 259 260 264 266 265 266 267 269 271 271 271 273 275 277 278 280 281 282 282 283 284 284 284 285 285 284 284 285 286 287 288 289 291 294 297 299 301
267 266 265 264 263 262 261 261 261 261 261 261 263 265 267 269 269 269 271 273 275 275 277 280 281 281 282 284 286 287 287 284 283 283 285 285 284 285 288 292 294 297 300 301
266 264 262 263 264 263 262 262 262 262 261 260 261 264 265 265 266 267 267 269 273 274 275 278 280 280 281 284 285 286 287 285 283 283 283 283 283 284 288 292 295 295 298 300
263 263 263 263 263 263 263 264 264 265 264 263 264 264 263 263 264 265 266 269 273 273 274 276 278 281 281 281 282 284 285 284 284 284 283 283 284 287 290 293 296 296 298 301
Height
5818 5818 5818 5819 5819 5819 5818 5818 5817 5816 5816 5815 5814 5814 5812 5811 5809 5808 5807 5805 5804 5802 5801 5799 5797 5795 5793 5791 5788 5785 5782 5778 5775 5771 5767 5763 5760 5757 5754 5752 5749 5747 5744 5741
5813 5813 5813 5813 5813 5814 5813 5813 5812 5812 5811 5811 5810 5808 5808 5807 5806 5804 5802 5801 5800 5798 5797 5795 5793 5791 5789 5786 5783 5780 5777 5774 5770 5766 5763 5759 5756 5753 5750 5747 5745 5742 5739 5737
5808 5808 5808 5808 5808 5808 5808 5808 5808 5807 5807 5806 5805 5804 5803 5802 5800 5799 5798 5796 5795 5793 5792 5791 5789 5787 5784 5782 5779 5776 5773 5770 5766 5762 5758 5755 5752 5749 5746 5743 5741 5738 5735 5732
5802 5803 5803 5806 5803 5803 5803 5802 5802 5801 5801 5800 5800 5799 5798 5797 5796 5794 5793 5791 5790 5788 5787 5786 5784 5782 5779 5777 5774 5772 5768 5765 5762 5758 5755 5751 5748 5745 5742 5739 5736 5734 5730 5727
5797 5797 5797 5799 5798 5798 5797 5797 5797 5796 5796 5795 5794 5794 5793 5792 5791 5790 5788 5786 5784 5783 5782 5780 5779 5777 5774 5772 5770 5767 5764 5761 5758 5754 5751 5748 5744 5741 5738 5735 5732 5729 5726 5723
5792 5792 5792 5795 5794 5792 5793 5791 5791 5790 5790 5789 5789 5788 5788 5787 5786 5785 5783 5781 5780 5778 5776 5775 5773 5771 5769 5767 5765 5762 5759 5756 5753 5750 5747 5744 5740 5737 5734 5731 5728 5725 5722 5718
5786 5786 5786 5788 5788 5788 5788 5788 5786 5785 5785 5784 5784 5783 5782 5781 5780 5779 5778 5776 5775 5773 5771 5770 5768 5766 5764 5762 5760 5757 5755 5752 5749 5746 5743 5740 5736 5733 5730 5726 5723 5720 5717 5714
5780 5781 5783 5782 5782 5782 5782 5781 5781 5780 5780 5779 5778 5777 5776 5775 5774 5773 5772 5771 5769 5768 5766 5765 5763 5761 5759 5757 5755 5752 5750 5747 5744 5741 5739 5735 5732 5729 5725 5722 5719 5716 5713 5710
5775 5777 5776 5776 5776 5776 5775 5775 5775 5775 5774 5773 5772 5771 5770 5770 5769 5768 5766 5765 5764 5763 5761 5760 5758 5756 5754 5752 5750 5747 5745 5743 5740 5737 5734 5731 5728 5724 5721 5718 5715 5712 5709 5706
5768 5769 5769 5770 5769 5770 5769 5769 5769 5769 5768 5767 5767 5766 5765 5764 5763 5762 5761 5760 5758 5757 5755 5754 5752 5751 5749 5746 5744 5742 5740 5738 5735 5733 5730 5727 5724 5721 5718 5715 5712 5708 5705 5702
5761 5762 5762 5763 5763 5763 5763 5763 5763 5763 5762 5761 5761 5760 5759 5758 5757 5756 5755 5754 5752 5751 5750 5748 5747 5745 5743 5741 5739 5737 5735 5733 5731 5728 5726 5723 5720 5717 5714 5711 5707 5704 5701 5698
5754 5755 5756 5756 5756 5756 5756 5757 5756 5756 5756 5755 5754 5753 5752 5751 5750 5749 5748 5747 5746 5745 5744 5742 5741 5739 5737 5736 5734 5732 5731 5728 5726 5724 5721 5718 5715 5712 5709 5706 5703 5700 5697 5694
5746 5747 5748 5748 5749 5749 5750 5750 5750 5749 5749 5748 5747 5746 5746 5745 5743 5742 5741 5740 5739 5738 5737 5736 5734 5733 5731 5730 5728 5727 5725 5723 5721 5718 5716 5713 5710 5707 5704 5701 5698 5695 5693 5690
5737 5738 5739 5740 5741 5742 5743 5743 5743 5742 5742 5741 5741 5740 5738 5737 5736 5735 5734 5733 5732 5731 5730 5729 5728 5726 5725 5724 5722 5721 5719 5717 5715 5712 5710 5707 5704 5702 5699 5696 5693 5691 5688 5685
5729 5730 5731 5732 5733 5734 5735 5735 5735 5736 5735 5734 5734 5733 5731 5730 5729 5728 5727 5726 5725 5724 5723 5722 5721 5720 5719 5717 5716 5714 5713 5711 5709 5706 5704 5701 5699 5696 5693 5691 5688 5686 5683 5681
5721 5721 5722 5723 5725 5725 5726 5727 5728 5728 5728 5727 5726 5726 5725 5724 5723 5722 5721 5719 5718 5718 5717 5715 5714 5713 5712 5711 5709 5708 5706 5705 5703 5700 5698 5695 5693 5690 5688 5685 5683 5680 5678 5676
5712 5713 5714 5715 5716 5717 5717 5718 5719 5720 5720 5720 5720 5719 5718 5717 5716 5715 5714 5713 5711 5710 5710 5708 5707 5706 5705 5704 5702 5701 5699 5698 5696 5694 5692 5690 5687 5685 5683 5680 5677 5675 5673 5670
5704 5704 5705 5706 5708 5708 5709 5710 5711 5712 5712 5713 5712 5712 5712 5711 5710 5709 5707 5706 5705 5704 5703 5702 5701 5700 5699 5698 5696 5694 5692 5691 5690 5688 5686 5684 5682 5680 5678 5675 5673 5670 5668 5666
5694 5695 5696 5698 5698 5699 5700 5701 5702 5704 5704 5705 5705 5705 5704 5704 5703 5702 5701 5699 5698 5697 5696 5695 5694 5693 5692 5691 5689 5688 5686 5685 5683 5682 5680 5678 5677 5675 5673 5670 5668 5666 5663 5661
5686 5686 5687 5688 5690 5691 5692 5693 5694 5695 5696 5697 5697 5697 5697 5696 5695 5694 5693 5693 5691 5690 5689 5689 5688 5686 5685 5684 5683 5682 5680 5679 5677 5676 5674 5673 5671 5670 5668 5666 5664 5661 5659 5657
5678 5678 5679 5680 5681 5682 5684 5685 5686 5687 5688 5689 5689 5689 5689 5689 5688 5687 5686 5685 5685 5684 5683 5682 5681 5680 5679 5678 5677 5675 5674 5673 5671 5670 5669 5667 5666 5665 5663 5661 5659 5657 5655 5653
5671 5671 5672 5673 5674 5675 5676 5677 5678 5679 5680 5680 5681 5681 5681 5681 5680 5680 5679 5678 5677 5677 5676 5675 5674 5673 5672 5671 5670 5668 5667 5666 5665 5664 5663 5662 5661 5659 5658 5656 5654 5652 5650 5648
5663 5664 5665 5666 5667 5668 5669 5669 5670 5671 5671 5672 5672 5672 5673 5673 5672 5672 5672 5671 5670 5670 5669 5668 5667 5666 5665 5664 5663 5662 5661 5660 5659 5658 5657 5656 5655 5654 5652 5651 5649 5647 5645 5643
5656 5657 5657 5658 5659 5660 5661 5661 5662 5662 5663 5663 5663 5664 5664 5664 5664 5664 5664 5664 5663 5663 5662 5661 5660 5659 5659 5658 5657 5656 5655 5654 5653 5652 5651 5650 5649 5648 5647 5645 5643 5642 5639 5637
5649 5649 5650 5651 5651 5652 5653 5653 5654 5654 5654 5655 5655 5656 5656 5656 5656 5656 5656 5656 5656 5655 5655 5654 5653 5652 5652 5651 5650 5649 5648 5647 5647 5646 5645 5644 5643 5642 5641 5639 5637 5636 5633 5631
5641 5642 5642 5643 5643 5644 5644 5645 5646 5646 5646 5647 5647 5648 5648 5648 5649 5649 5649 5649 5649 5648 5648 5647 5647 5646 5645 5644 5643 5643 5642 5641 5640 5640 5639 5638 5637 5636 5635 5633 5632 5630 5627 5625
5634 5634 5635 5635 5636 5636 5637 5637 5638 5638 5638 5639 5639 5640 5640 5640 5641 5641 5641 5642 5642 5641 5641 5640 5640 5639 5639 5638 5637 5636 5636 5635 5634 5633 5633 5632 5631 5630 5629 5627 5625 5623 5621 5619